Location: Coupvray
(48.8929°N, 2.7967°E)
Time: 23:59:47
(UTC+00:00)

Cosmos 724 - Pass Details

Date: 01 November 2020
Orbit: 851 x 943 km, 65.6° (Epoch: 28 November)

Event Time Altitude Azimuth Distance (km) Brightness Sun altitude
Exits shadow 01:46:03 13° 22° (NNE) 2,435 7.0 -46.1°
Drops below altitude 10° 01:46:56 10° 29° (NNE) 2,622 7.2 -46.0°
Sets 01:50:26 0° 48° (NE) 3,582 8.2 -45.5°
